Home   Weather   Columbus   Past weeks

Flag for USA Past Weather in Columbus, Georgia, USA — Yesterday and Last 2 Weeks

Now
58 °F

Sunny.


Feels Like: 56 °F
Forecast: 36 / 60 °F
Wind: 9 mph from Northeast

Location: Columbus Metropolitan Airport

Current Time: Dec 2, 2016 at 1:04:45 pm

Latest Report: Dec 2, 2016 at 11:51 am


Visibility: 10 mi

Pressure: 30.27 "Hg

Humidity: 30%

Dew Point: 26 °F

Location of ColumbusLocation

Past Weather in Columbus — Graph

°F

Columbus Temperature Yesterday

Maximum temperature yesterday: 60 °F (at 3:51 pm)
Minimum temperature yesterday: 43 °F (at 6:51 am)
Average temperature yesterday: 51 °F

High & Low Weather Summary for the Past Weeks

 TemperatureHumidityPressure
High78 °F (Nov 17, 1:51 pm)100% (Nov 29, 9:58 am)30.31 "Hg (Nov 29, 9:58 am)
Low33 °F (Nov 20, 6:51 am)11% (Nov 21, 12:51 pm)29.70 "Hg (Nov 30, 1:51 pm)
Average57 °F55%30.12 "Hg
* Reported Nov 17 11:51 am — Dec 2 11:51 am, Columbus, Weather by CustomWeather, © 2016

Note: Actual official high and low records may vary slightly from our data, if they occured in-between our weather recording intervals... More about our weather records

Advertising

Columbus Weather History for the Previous 24 Hours

Scroll right to see more
 ConditionsComfort  
Time TempWeatherWind HumidityBarometerVisibility
11:51 am
Fri, Dec 2
58 °FSunny.9 mph30%30.27 "Hg10 mi
10:51 am54 °FSunny.8 mph35%30.28 "Hg10 mi
9:51 am49 °FSunny.6 mph46%30.27 "Hg10 mi
8:51 am43 °FSunny.No wind65%30.26 "Hg10 mi
7:51 am38 °FSunny.No wind79%30.23 "Hg10 mi
6:51 am37 °FClear.No wind79%30.21 "Hg10 mi
5:51 am37 °FClear.No wind79%30.19 "Hg10 mi
4:51 am37 °FClear.3 mph82%30.17 "Hg10 mi
3:51 am41 °FClear.5 mph65%30.14 "Hg10 mi
2:51 am42 °FClear.5 mph65%30.14 "Hg10 mi
1:51 am41 °FClear.No wind70%30.13 "Hg10 mi
12:51 am42 °FClear.No wind68%30.13 "Hg10 mi
11:51 pm
Thu, Dec 1
43 °FClear.No wind68%30.12 "Hg10 mi
10:51 pm44 °FClear.No wind65%30.11 "Hg10 mi
9:51 pm47 °FClear.3 mph59%30.10 "Hg10 mi
8:51 pm49 °FClear.5 mph52%30.09 "Hg10 mi
7:51 pm50 °FClear.7 mph54%30.09 "Hg10 mi
6:51 pm52 °FClear.3 mph49%30.06 "Hg10 mi
5:51 pm55 °FClear.7 mph39%30.05 "Hg10 mi
4:51 pm59 °FSunny.7 mph35%30.03 "Hg10 mi
3:51 pm60 °FSunny.7 mph32%30.02 "Hg10 mi
2:51 pm59 °FSunny.9 mph35%30.03 "Hg10 mi
1:51 pm59 °FSunny.10 mph33%30.04 "Hg10 mi
Weather by CustomWeather, © 2016

See weather overviewHow to use our weather pages